Regional Weather Roundup
Issued by NWS Midland/Odessa, TX

Skip options and go directly to product.
Home | Oldest Version | Previous Version | Current Version | All | Text Only | Save Text | Print | Product List | Glossary On

Skip product version selection by date and time.   
151
ASUS44 KMAF 040510
RWRMAF
MIDLAND AREA WEATHER ROUNDUP
NATIONAL WEATHER SERVICE MIDLAND TX
1200 AM CDT TUE AUG 04 2015

...IN SOUTHWEST TEXAS AND SOUTHEAST NEW MEXICO...

CITY           SKY/WX    TMP DP  RH WIND       PRES   REMARKS
ALPINE         MOCLDY    71  60  66 CALM      30.19F
ANDREWS        LGT RAIN  69  69  99 E10       30.07F
ARTESIA        PTCLDY    70  68  94 S8        30.03
BIG SPRING     CLOUDY    73  65  78 W17       30.07R
CARLSBAD       MOCLDY    76  62  62 SE8       30.00S
DRYDEN           N/A     88  59  37 S10       29.94R
FORT STOCKTON  MOCLDY    75  65  70 CALM      30.05R
GUAD PASS      MOCLDY    69  58  67 W12       30.17R
HOBBS            N/A    N/A N/A N/A MISG        N/A
MARFA          MOCLDY    72  59  64 NE12      30.16R
MIDLAND AIRPK  DRIZZLE   71  66  86 NW13      30.06F
MIDLAND INTL   LGT RAIN  72  66  81 N13       30.05S
ODESSA         CLOUDY    71  67  87 N8        30.06R
PECOS          MOCLDY    76  63  63 S7        30.00S
PRESIDIO       CLOUDY    88  57  34 MISG      29.95R
SEMINOLE       DRIZZLE   69  67  94 SE16      30.05F
SNYDER         CLOUDY    84  61  46 SW14      30.00R
WINK           CLOUDY    75  64  68 E12       29.97F
$$
...OTHER STATIONS IN TEXAS...

CITY           SKY/WX    TMP DP  RH WIND       PRES   REMARKS
ABILENE        CLEAR     84  60  44 SE10      29.94S
AMARILLO       MOCLDY    67  60  78 NE12      30.07F
AUSTIN         CLEAR     81  71  71 S10       29.91R
BROWNSVILLE    CLEAR     82  77  84 SE13      29.90R
CORPUS CHRISTI PTCLDY    82  77  84 S9        29.89S
DALLAS FTW     PTCLDY    87  60  40 S7        29.89S
DEL RIO        CLEAR     87  60  40 E8        29.88R
EL PASO        MOCLDY    78  61  55 S18       30.06R
HOUSTON INT    PTCLDY    82  74  76 CALM      29.90S
LUBBOCK        CLOUDY    73  64  73 S10       30.02R
SAN ANGELO     CLEAR     85  60  42 SE7       29.94R
SAN ANTONIO    PTCLDY    84  70  62 SE12      29.93R
WACO           CLEAR     85  64  49 S7        29.90S
WICHITA FALLS  NOT AVBL
$$
...OTHER LOCATIONS IN NEW MEXICO...

CITY           SKY/WX    TMP DP  RH WIND       PRES   REMARKS
ALAMAGORDO     PTCLDY    77  55  47 S9        30.05R
ALBUQUERQUE    PTCLDY    78  47  33 N3        30.13R
CANNON AFB     NOT AVBL
CLOVIS         CLEAR     66  63  88 SE6       30.08R
HOLLOMAN AFB   PTCLDY    80  59  48 W18       30.03R
ROSWELL        PTCLDY    70  66  87 S9        30.02R
RUIDOSO          N/A    N/A N/A N/A MISG        N/A
SANTA FE       CLEAR     67  46  47 NW5       30.18S
TRUTH OR CONSE MOCLDY    81  56  42 W6        30.07R
TUCUMCARI      PTCLDY    75  61  61 CALM      30.01R
$$

USA.gov is the U.S. government's official web portal to all federal, state and local government web resources and services.